Observations for Trim Patrick St
| Time | AQI | Temp °C | Hum % | Pres Pa | CO μg/m³ | H₂S μg/m³ | NO μg/m³ | NO₂ μg/m³ | O₃ μg/m³ | SO₂ μg/m³ | PM1 μg/m³ | PM2.5 μg/m³ | PM10 μg/m³ |
|---|---|---|---|---|---|---|---|---|---|---|---|---|---|
| Thursday 27 August 2026 | |||||||||||||
| 05:20 | 2 | 16.7 | 88 | 38,203 | 0.26 | 0.97 | 1.55 | 21.41 | 32.94 | 0 | 23.43 | 29.93 | 32.93 |
| 05:19 | 2 | 16.7 | 89 | 38,203 | 0.25 | 0 | 1.63 | 14.12 | 30.56 | 0 | 23.43 | 29.21 | 32.13 |
| 05:18 | 2 | 16.7 | 88 | 38,204 | 0.25 | 1.84 | 1.53 | 20.88 | 37.81 | 0 | 25.14 | 32.65 | 35.91 |
| 05:17 | 2 | 16.6 | 88 | 38,204 | 0.25 | 0.92 | 1.54 | 21 | 34.37 | 0 | 23.43 | 29.96 | 31.39 |
| 05:16 | 2 | 16.7 | 89 | 38,205 | 0.25 | 1.37 | 1.33 | 21.46 | 30.75 | 0 | 23.43 | 31.94 | 35.13 |
| 05:15 | 2 | 16.6 | 88 | 38,206 | 0.25 | 0.48 | 1.23 | 21.6 | 31.25 | 0 | 21.72 | 29.22 | 32.14 |
| 05:14 | 2 | 16.6 | 89 | 38,208 | 0.25 | 0.24 | 1.22 | 16.9 | 32.52 | 0 | 24.29 | 31.25 | 34.38 |
| 05:13 | 2 | 16.6 | 88 | 38,210 | 0.26 | 1.99 | 1.51 | 23.7 | 31.85 | 0 | 22.57 | 29.27 | 32.19 |
| 05:12 | 2 | 16.6 | 88 | 38,213 | 0.25 | 1.71 | 1.44 | 23.8 | 39.76 | 0 | 23.43 | 30.73 | 33.81 |
| 05:11 | 2 | 16.6 | 88 | 38,217 | 0.25 | 1.11 | 1.58 | 18.61 | 30.8 | 0 | 23.43 | 32.1 | 32.87 |
| 05:10 | 2 | 16.6 | 87 | 38,223 | 0.24 | 2.33 | 1.69 | 23.98 | 40.06 | 0 | 22.57 | 30.78 | 31.06 |
| 05:09 | 2 | 16.5 | 89 | 38,230 | 0.25 | 1.5 | 2.02 | 20.32 | 28.6 | 0 | 23.43 | 30.57 | 31.22 |
| 05:06 | 2 | 16.5 | 88 | 38,267 | 0.25 | 1.55 | 1.63 | 25.25 | 40.05 | 0 | 25.14 | 32.75 | 34.07 |
| 05:05 | 2 | 16.5 | 88 | 38,288 | 0.24 | 0.85 | 1.57 | 17.3 | 29.93 | 0 | 23.43 | 29.93 | 30.06 |
| 05:04 | 2 | 16.5 | 88 | 38,288 | 0.25 | 1.42 | 1.42 | 20.62 | 35.19 | 0 | 23.43 | 29.93 | 30.06 |
| 05:03 | 2 | 16.5 | 89 | 38,288 | 0.24 | 0.04 | 1.59 | 17.96 | 32.66 | 0 | 23.43 | 30.57 | 31.85 |
| 05:02 | 2 | 16.5 | 88 | 38,288 | 0.23 | 0.25 | 1.41 | 17.04 | 27.92 | 0 | 21.72 | 29.24 | 32.16 |
| 05:00 | 2 | 16.4 | 88 | 38,288 | 0.23 | 1.03 | 1.62 | 22.03 | 37.58 | 0 | 23.43 | 30.73 | 33.81 |
| 04:57 | 2 | 16.4 | 88 | 38,288 | 0.24 | 0.79 | 1.5 | 17.69 | 31.93 | 0 | 22.57 | 29.31 | 32.24 |
| 04:56 | 2 | 16.4 | 86 | 38,288 | 0.24 | 0.66 | 1.6 | 23.43 | 44.08 | 0 | 24.29 | 31.71 | 32.93 |